Tracking 31027 objects as of 19-Jul-2025
HD Live streaming from Space Station
objects crossing your sky now

ARIANE 2 DEB

Track ARIANE 2 DEB now!


NORAD ID: 33568
Int'l Code: 1989-006BL
Perigee: 427.8 km
Apogee: 35,298.8 km
Inclination: 8.1 °
Period: 625.8 minutes
Semi major axis: 24234 km
RCS: 0.1575 m2 (medium)
Launch date: January 27, 1989
Source: France (FR)
Launch site: FRENCH GUIANA (FRGUI)

Note: This is SATELLITE DEBRIS
Your satellite tracking list
ATLAS 5 CENTAUR DEB
Track 1 satellite(s)




NASA's NSSDC Master Catalog

Two Line Element Set (TLE):
1 33568U 89006BL  25198.85127244  .00000214  00000-0  11757-2 0  9996
2 33568   8.1155 101.5135 7194554  26.0222 356.9097  2.30121771159370
Source of the keplerian elements: AFSPC